Simultaneous Nadir Overpasses (SNOs) Predictions

Prediction of SNOs between GOES-16 and NOAA-19 Satellite Orbit:

Table of predicted SNOs for the next 14.0 days since TLE Epoch: 11/23/2024
Index Date Time (GOES-16) GOES-16 Lat,Lon NOAA-19 Lat,Lon Distance(km) Time Diff (sec)
1 11/23/2024 02:50:10 0.03, -75.19 0.00, -79.33 461.44 80
2 11/24/2024 02:37:28 0.03, -75.19 -0.15, -76.11 104.00 80
3 11/25/2024 02:22:19 0.03, -75.20 0.52, -73.08 242.83 80
4 11/27/2024 14:43:57 -0.03, -75.27 0.50, -77.60 265.74 80
5 11/28/2024 14:28:49 -0.03, -75.28 -0.19, -74.57 81.67 80
6 11/29/2024 14:16:20 -0.02, -75.30 -0.90, -71.54 429.16 80
7 12/01/2024 02:50:33 0.02, -75.28 -0.84, -79.11 436.36 80
8 12/02/2024 02:38:04 0.01, -75.30 -0.15, -76.08 88.87 80
9 12/03/2024 02:22:56 0.01, -75.31 0.55, -73.05 258.77 80
10 12/05/2024 14:41:49 0.00, -75.39 0.51, -77.55 247.12 80
11 12/06/2024 14:29:21 0.00, -75.41 -0.21, -74.52 101.13 80
